Location: Ostrava
(49.8333°N, 18.2833°E)
Time: 11:50:59
(UTC+01:00)

ISS - Visible Passes

Search period start: 20 January 2018 00:00
Search period end: 30 January 2018 00:00
Orbit: 402 x 407 km, 51.6° (Epoch: 20 January)

Date Brightness Start Highest point End Pass type
(mag) Time Alt. Az. Time Alt. Az. Time Alt. Az.
25 Jan -1.3 18:13:11 10° SSE 18:13:26 11° SSE 18:13:26 11° SSE visible
26 Jan -1.6 18:54:58 10° SW 18:56:11 19° SSW 18:56:11 19° SSW visible
27 Jan -2.3 18:03:08 10° SSW 18:05:43 22° SE 18:06:11 21° SE visible
27 Jan -0.5 19:38:36 10° WSW 19:38:51 12° WSW 19:38:51 12° WSW visible
28 Jan -1.6 17:11:49 10° S 17:13:33 14° SE 17:15:16 10° ESE visible
28 Jan -3.0 18:46:17 10° SW 18:48:46 45° SSW 18:48:46 45° SSW visible
29 Jan -3.1 17:54:05 10° SW 17:57:09 39° SSE 17:58:36 24° E visible
29 Jan -1.0 19:30:16 10° W 19:31:15 18° W 19:31:15 18° W visible
